Starlink 2412

operational
NORAD ID: 48094 Int'l Des: 2021-027 Owner: SPXS Country: US Constellation: starlink
LEOCIRCULARSTARLINK_TYPE

Über Starlink 2412

Beschreibung wird geladen...

Live-Position

3D-Globus wird geladen...

Nächste Überflüge

Höhenverlauf

Altitude vs Time

uPlot chart will show altitude changes over time

Zweizeiliger Elementsatz

1 48094U 21027C 25298.75119056 -.00000785 00000-0 -33791-4 0 9996
2 48094 53.0557 57.3820 0001516 88.9725 271.1438 15.06404016252089
Epoch: 25. Okt. 2025 • Age: 14 hours

Aktueller Status

Höhe 566.3 km
Geschwindigkeit 7.58 km/s
Subsatellitenpunkt -52.11°S, 174.23°W
Startdatum 7. Apr. 2021
Alter 4.5 years
Typ internet

Technische Details

Klassifizierung Payload
Masse 260.00 kg
Trockenmasse 248.00 kg
Gesamtmasse 260.00 kg
Länge 0.20 m
Durchmesser 2.80 m
Spannweite 9.00 m
Form Box + pan
Hersteller SPXS
Bus-Typ Starlink
Phasenstatus In Orbit
Besitzer/Staat SPXS/US

Große Konstellationen

Loading constellations...